Regional Weather Roundup
Issued by NWS Wakefield, VA

Home | Current Version | Previous Version | Text Only | Print | Product List | Glossary Off
Versions: 1 2 3 4 5 6 7 8 9 10 11 12 13 14 15 16 17 18 19 20 21 22 23 24 25 26 27 28 29 30 31 32 33 34 35 36 37 38 39 40 41 42 43 44 45 46 47 48 49 50

000
ASUS41 KAKQ 311515
RWRAKQ

REGIONAL WEATHER ROUNDUP
NATIONAL WEATHER SERVICE WAKEFIELD VA
1100 AM EDT FRI JUL 31 2015

Note: "fair" indicates few or no clouds below 12,000 feet with no
significant weather and/or obstructions to visibility. * = Denotes
station may not report precipitation (e.g., rain,snow,etc.),
thunder or fog.

VAZ042-051-052>054-056-311600-
NORTHERN VIRGINIA

CITY           SKY/WX    TMP DP  RH WIND       PRES   REMARKS
WASH NATIONAL  SUNNY     87  63  44 N9        29.95F
DULLES         SUNNY     82  62  50 NW8       29.97S
FORT BELVOIR   SUNNY     85  61  44 W7        29.95S
QUANTICO         N/A     86  62  44 W5        29.92F
FREDERICKSBRG* SUNNY     85  64  48 NW7       29.96S
STAFFORD*      SUNNY     82  62  50 NW8       30.01R
WARRENTON      SUNNY     85  66  53 NW7       29.97S
CULPEPER*      SUNNY     81  64  56 N6        29.99S
MANASSAS*      SUNNY     82  63  51 NW3       29.97S
LEESBURG*      SUNNY     82  66  57 NW7       29.98S
WINCHESTER     SUNNY     84  59  42 NW9       29.99S
FRONT ROYAL*   FAIR      79  61  53 CALM      29.99S
LURAY*         FAIR      82  59  44 CALM      30.01S
$$

VAZ048-049-060>072-079>083-311600-
CENTRAL AND SOUTH CENTRAL VIRGINIA

CITY           SKY/WX    TMP DP  RH WIND       PRES   REMARKS
RICHMOND       MOSUNNY   85  63  47 NE9       29.97S
CHESTERFIELD*  FAIR      84  55  37 N10       29.98S
PETERSBURG*    SUNNY     86  67  52 N12       29.98R
HANOVER        SUNNY     83  66  56 N5        29.99R
TAPPAHANNOCK*  SUNNY     82  62  50 CALM      29.97S
QUINTON*       FAIR      82  65  57 N6        29.96S
CHARLOTTSVILLE SUNNY     82  59  45 N6        30.00S
GORDONSVILLE*  FAIR      82  63  51 CALM      29.99S
ORANGE*        SUNNY     82  61  47 CALM      30.00S
LOUISA*        SUNNY     84  59  42 N7        29.99R
BUMPASS*       FAIR      82  62  51 N5        29.98S
FARMVILLE*     SUNNY     84  58  40 NE12      29.98S
CREWE*         FAIR     N/A N/A N/A N3        29.99R
FORT PICKETT*  CLOUDY    83  61  47 N10       29.99S
CHASE CITY*    FAIR      82  64  54 N9        30.00S
CLARKSVILLE*   FAIR      82  63  51 N8        29.99S
SOUTH HILL*    SUNNY     82  64  54 N9        30.04S
LAWRENCEVILLE* FAIR      82  66  57 N6        29.97S
EMPORIA*       SUNNY     82  64  54 N7        29.97S
$$

VAZ088>098-311600-
SOUTHEAST VIRGINIA

CITY           SKY/WX    TMP DP  RH WIND       PRES   REMARKS
NORFOLK        SUNNY     84  65  52 NE13      29.93S
VIRGINIA BEACH MOSUNNY   87  65  47 N16G23    29.92S
NORFOLK NAVAL  MOSUNNY   84  65  52 NE13G21   29.94S
WEST POINT*    SUNNY     85  62  45 N7        29.97R
SALUDA*        FAIR      81  71  70 N5        29.95S
NEWPORT NEWS   SUNNY     85  70  60 NE12      29.94S
LANGLEY AFB    SUNNY     84  69  61 NE15      29.93S
FORT EUSTIS    SUNNY     85  67  53 VRB5      29.93R
WILLIAMSBURG*  SUNNY     84  75  74 CALM      29.96S
HR EXEC AP*    FAIR      84  73  70 NE9       29.95S
FRANKLIN*      MOSUNNY   84  71  65 NE9       29.95S
WAKEFIELD      SUNNY     84  69  60 VRB6      29.95S
$$

VAZ020-022-025-037-045-311600-
WEST CENTRAL AND SOUTHWEST VIRGINIA

CITY           SKY/WX    TMP DP  RH WIND       PRES   REMARKS
STAUNTON*      SUNNY     82  57  42 N7        30.06S
WAYNESBORO*    FAIR      77  56  48 N9G16     30.05S
HOT SPRINGS VA SUNNY     68  55  63 NW6       30.15S
LYNCHBURG      SUNNY     81  61  50 VRB5      30.04S
DANVILLE       SUNNY     83  63  50 N10       30.02S
SOUTH BOSTON*  FAIR      82  63  52 N9        30.00S
MARTINSVILLE   SUNNY     82  58  42 N9        30.07R
ROANOKE        MOSUNNY   81  54  39 NE10      30.07S
BLACKSBURG     SUNNY     76  58  52 N7        30.14R
DUBLIN*          N/A     77  57  50 N6        30.12S
MARION*        SUNNY     74  56  53 N6        30.16S
HILLSVILLE*    SUNNY     71  57  61 N10       30.13R
RICHLANDS*     FAIR      71  57  61 N6        30.16R
WISE*          MOSUNNY   73  52  46 N8        30.17S
ABINGDON*      MOSUNNY   76  55  48 N3        30.13R
$$

MDZ021>025-VAZ099-100-311600-
SOUTHERN MARYLAND AND THE DELMARVA PENINSULA

CITY           SKY/WX    TMP DP  RH WIND       PRES   REMARKS
PATUXENT RIVER MOSUNNY   83  65  54 NW6       29.94F
BAY BRIDGE APT   N/A     81  61  50 NW5       29.94S
LEONARDTOWN    SUNNY     81  59  47 CALM      29.97R
DOVER          SUNNY     84  63  49 NW9       29.92R
GEORGETOWN     SUNNY     85  57  38 N8        29.93S
EASTON         SUNNY     84  64  51 NW6       29.97S
CAMBRIDGE      SUNNY     82  57  42 N5        29.93S
SALISBURY      SUNNY     84  61  45 N9        29.93S
OCEAN CITY     SUNNY     85  59  41 NW13      29.92S
WALLOPS ISLAND SUNNY     84  60  44 N10       29.93S
ACCOMACK*      SUNNY     82  10   6 N12       29.94R
$$

NCZ012>017-030>032-311600-
NORTH CENTRAL AND EASTERN NORTH CAROLINA

CITY           SKY/WX    TMP DP  RH WIND       PRES   REMARKS
ROANOKE RAPIDS FAIR      82  64  54 N13       29.95S
RALEIGH        MOSUNNY   83  63  50 NE10G17   29.98F
ELIZABETH CITY PTSUNNY   83  74  74 N14       29.91F
AHOSKIE*       SUNNY     82  69  64 N8        29.94F
EDENTON*         N/A     83  71  66 NE7G17    29.92S
CURRITUCK*     PTSUNNY   83  71  67 N13       29.92S
KILL DEVIL HLS SUNNY     86  73  66 NE6       29.89S
MANTEO         PTSUNNY   83  76  79 NE12      29.90S
CAPE HATTERAS  MOSUNNY   86  76  71 NE10      29.87F HX  96
TARBORO*         N/A     86  70  58 NE7       29.95S
GOLDSBORO      SUNNY     86  70  59 NE14      29.92S
WASHINGTON     SUNNY     82  73  76 NE12      29.92F
GREENVILLE     PTSUNNY   84  72  65 N13       29.95S
NEW BERN       PTSUNNY   85  75  72 N7        29.91S
WILMINGTON     PTSUNNY   87  76  69 N9        29.91R HX  97
$$

VAZ048-311600-
ELSEWHERE

CITY           SKY/WX    TMP DP  RH WIND       PRES   REMARKS
HARRISBURG PA  SUNNY     82  62  50 W9        29.93S
BALTIMORE      MOSUNNY   84  62  47 W8        29.94S
ANNAPOLIS      SUNNY     83  62  49 NW7       29.94R
ANDREWS AFB    SUNNY     84  60  43 W8        29.95S
PHILADELPHIA   SUNNY     85  60  42 NW8       29.91S
HENDERSON NC   SUNNY     82  56  41 N8        30.00R
GREENSBORO     MOSUNNY   81  58  45 N12       30.03R
ROCKY MOUNT    SUNNY     87  67  51 N14       29.95S
$$

VAZ100-311600-
MARINE

STATION/POSITION TIME  TEMP    WIND        PRES    WAVE   SWELL
                       AIR SEA DIR/SP/G            HT/PER HT/PER
                 (UTC) (F)     (DEG/KT/KT) (MB)    (FT/S) (FT/S)
BRANDYWINE LGT   1400   77 75  330/  5/  5 1013.5R
CAPE MAY NJ      1400   82 78  330/  3/  9 1012.8S
LEWES DE         1400   77 73  310/  6/  7 1013.1S
15NM E FENWICK I 1450   78 79  330/ 10/ 12 1013.2R   3/ 7   3/ 7
OCEAN-CITY-INLET 1400   79 71   10/  8/ 11 1012.3S
WACHAPREAGUE VA  1400   82 83   20/  6/ 10 1013.6S
GOOSES REEF MD   1500   81 82  290/  2/  4 1014.8F
COVE POINT MD    1400   77     350/  9/ 11 1014.6S
SOLOMONS ISLAND  1400      82                N/A
BISHOPS HEAD MD  1400   81 82   20/  5/  9 1012.8S
PINEY POINT MD   1400          340/  5/  6   N/A
POTOMAC MD       1500   81 83   40/  6/  8 1012.9R   0
CAMBRIDGE MD     1400   80 83  360/  4/  5 1012.8S
LEWISETTA VA     1400   79 83  360/  6/  7 1013.7F
RAPPAHANNOCK LGT 1400           10/ 11/ 12 1014.2R
STINGRAY PT      1500   82 83   30/ 12/ 14 1014.1R   2/ 3
YORK RVR RNG VA  1400   80      20/  8/ 10 1013.1R
YORKTOWN VA      1400   81 83   30/ 10/ 12 1013.4F
JAMESTOWN VA     1500   82 86   20/  6/ 10   N/A
DOMINION TERM VA 1400   81      20/ 10/ 13 1013.4S
KIPTOPEKE VA     1400      82   20/  8/ 12   N/A
CHES BAY BRIDGE  1400   80 79  360/ 13/ 15 1013.0S
CAPE HENRY VA    1400   80     360/ 14/ 17   N/A
CHESAPEAKE LGHT  1400   80      10/ 13/ 14 1013.7F
WILLOUBY STN VA  1400   81      30/ 12/ 14 1014.4F
CAPE HENRY BUOY  1428      80                N/A     3/ 6
1ST LANDING BUOY 1500      80              1013.0S   2/ 3
CAPE CHARLES BUO 1426      80                N/A     3/ 6   2/ 6
OFFSHORE WE BUOY 1411      82                N/A     4/ 6   3/ 6
64NM E OF VA BCH 1450   80 81  360/ 14/ 17 1011.6F   4/ 9   3/ 9
DUCK PIER NC     1400   76 62   30/ 15/ 16 1011.7S
44100 DUCK FRF   1424      80                N/A     4/ 9
44056 DUCK FRF   1411      73                N/A     3/ 9
OREGON INLET NC  1400   81 83   10/  8/  8 1012.0F
HATTERAS NC      1400   81 82  340/ 11/ 12 1011.5F
DIAMOND SHLS NC  1450   82 86  360/ 12/ 14 1011.6R   4/ 9   3/ 9
CAPE LOOKOUT NC  1500   85     330/  3/  4 1012.1R
$$



USA.gov is the U.S. government's official web portal to all federal, state and local government web resources and services.